Regional Weather Roundup
Issued by NWS

Home | Current Version | Previous Version | Graphics & Text | Print | Product List | Glossary On
Versions: 1 2 3 4 5 6 7 8 9 10 11 12 13 14 15 16 17 18 19 20 21 22 23 24 25 26 27 28 29 30 31 32 33 34 35 36 37 38 39 40 41 42 43 44 45 46 47 48 49 50
000
ASUS45 KABQ 022201
RWRNM
NEW MEXICO REGIONAL WEATHER ROUNDUP
NATIONAL WEATHER SERVICE ALBUQUERQUE NM
400 PM MDT THU JUL 02 2015

NOTE: "FAIR" MEANS FEW OR NO CLOUDS BELOW 12,000 FEET AGL WITH NO
       SIGNIFICANT WEATHER OR OBSTRUCTIONS TO VISION.

      THIS PRODUCT IS RELEASED AS TWO VERSIONS.  ONE VERSION NEAR
      THE TOP OF THE HOUR CONTAINING PRELIMINARY DATA FROM ALBUQUERQUE
      AND OTHER STATIONS.  A FINAL VERSION WITH ADDITIONAL DATA IS
      ISSUED ABOUT 10 MINUTES AFTER THE HOUR.

NMZ501-503-504-510>518-022300-
NORTHWEST PLATEAU/NORTHCENTRAL MOUNTAINS

CITY           SKY/WX    TMP DP  RH WIND       PRES   REMARKS
FARMINGTON     SUNNY     93  47  20 W14G25    30.06F
SANTA FE       CLOUDY    82  48  30 E23G36    30.16F
TAOS           CLOUDY    77  48  36 SE23G31   30.25R

$$
NMZ402-403-502-505>509-022300-
WESTCENTRAL MOUNTAINS/SOUTHWEST MOUNTAINS

CITY           SKY/WX    TMP DP  RH WIND       PRES   REMARKS
GALLUP         MOSUNNY   89  51  27 VRB3G16   30.15F
GRANTS         PTSUNNY   91  43  18 W12       30.15F
SILVER CITY      N/A     91  48  22 SW8G18    30.07F

$$
NMZ407-409-411-412-022300-
SOUTHERN DESERTS

CITY           SKY/WX    TMP DP  RH WIND       PRES   REMARKS
LORDSBURG      FAIR      99  46  16 W7G24     29.97F HX  95
DEMING         SUNNY    100  47  16 SW13      29.95F HX  96
HOLLOMAN AFB   MOSUNNY   98  47  17 S6        29.92F
ALAMOGORDO     MOSUNNY   97  46  17 SE5       29.95F
T OR C         SUNNY     97  40  14 E7        29.99F

$$
NMZ519>523-022300-
CENTRAL VALLEYS/CENTRAL HIGHLANDS

CITY           SKY/WX    TMP DP  RH WIND       PRES   REMARKS
ALBUQUERQUE    PTSUNNY   88  48  25 E23G30    30.05F
DOUBLE EAGLE   TSTM      91  50  24 E10G17    30.09F
CLINES CORNERS LGT RAIN  77  55  46 NE21      30.25R
BELEN          FAIR      96  41  15 SE3       30.03F
SOCORRO        NOT AVBL

$$
NMZ524>526-539-540-022300-
SOUTHCENTRAL MOUNTAINS

CITY           SKY/WX    TMP DP  RH WIND       PRES   REMARKS
RUIDOSO        NOT AVBL

$$
NMZ527>531-022300-
NORTHEAST HIGHLANDS/NORTHEAST PLAINS

CITY           SKY/WX    TMP DP  RH WIND       PRES   REMARKS
LAS VEGAS      TSTM      63  59  87 NW12      30.32R
RATON          PTSUNNY   76  57  51 CALM      30.26R
CLAYTON        PTSUNNY   83  62  49 N10       30.15S

$$
NMZ532>537-022300-
EASTCENTRAL PLAINS

CITY           SKY/WX    TMP DP  RH WIND       PRES   REMARKS
TUCUMCARI      PTSUNNY   91  56  30 VRB3      30.03F
CANNON AFB     NOT AVBL
CLOVIS AIRPORT PTSUNNY   90  61  37 E10         N/A

$$
NMZ028-029-538-022300-
SOUTHEAST PLAINS

CITY           SKY/WX    TMP DP  RH WIND       PRES   REMARKS
ROSWELL        PTSUNNY   94  60  32 VRB5      29.96F
ARTESIA        SUNNY     95  59  30 SE13      29.96F
CARLSBAD       MOSUNNY   95  58  28 VRB3      29.93F
HOBBS          MOSUNNY   93  52  24 E12G18    29.99F


$$



USA.gov is the U.S. government's official web portal to all federal, state and local government web resources and services.